Location: Ferchesar
(52.6477°N, 12.4298°E)
Time: 07:21:50
(UTC+01:00)

Vanguard 1 Rocket - Visible Passes

Search period start: 07 December 2021 00:00
Search period end: 17 December 2021 00:00
Orbit: 650 x 4226 km, 34.3° (Epoch: 04 December)

Date Brightness Start Highest point End Pass type
(mag) Time Alt. Az. Time Alt. Az. Time Alt. Az.
07 Dec 10.8 01:28:51 18° ESE 01:28:51 18° ESE 01:34:20 10° ESE visible
07 Dec 10.0 03:46:08 35° S 03:48:56 37° S 04:06:33 10° ESE visible
07 Dec 10.6 06:03:25 12° WSW 06:16:03 35° SSW 06:36:09 10° SE visible
08 Dec 10.2 02:38:53 31° SSE 02:38:53 31° SSE 02:51:32 10° ESE visible
08 Dec 10.2 04:56:10 25° SW 05:03:19 37° S 05:22:20 10° SE visible
08 Dec 10.9 07:17:38 10° WSW 07:30:50 27° SSW 07:48:46 10° SSE visible
09 Dec 10.8 01:31:38 18° ESE 01:31:38 18° ESE 01:36:24 10° ESE visible
09 Dec 10.0 03:48:55 34° S 03:51:02 36° S 04:07:52 10° ESE visible
09 Dec 10.6 06:06:11 12° WSW 06:18:00 31° SSW 06:36:33 10° SSE visible
10 Dec 10.2 02:41:40 30° SSE 02:41:40 30° SSE 02:53:08 10° ESE visible
10 Dec 10.1 04:58:56 24° SW 05:05:23 34° S 05:23:09 10° SE visible
10 Dec 10.9 07:21:04 10° WSW 07:32:38 22° SSW 07:48:00 10° S visible
11 Dec 10.8 01:34:25 17° ESE 01:34:25 17° ESE 01:38:20 10° ESE visible
11 Dec 10.0 03:51:41 33° S 03:53:11 34° S 04:09:02 10° SE visible
11 Dec 10.6 06:08:59 11° WSW 06:19:59 27° SSW 06:36:33 10° SSE visible
12 Dec 10.3 02:44:28 28° SSE 02:44:28 28° SSE 02:54:37 10° ESE visible
12 Dec 10.2 05:01:44 23° SW 05:07:30 30° SSW 05:23:42 10° SE visible
12 Dec 11.0 07:25:10 10° WSW 07:34:30 17° SW 07:46:17 10° S visible
13 Dec 10.8 01:37:14 15° ESE 01:37:14 15° ESE 01:40:11 10° ESE visible
13 Dec 10.0 03:54:30 31° S 03:55:24 31° S 04:10:02 10° SE visible
13 Dec 10.6 06:12:05 10° WSW 06:22:01 22° SSW 06:36:01 10° SSE visible
14 Dec 10.3 02:47:17 26° SSE 02:47:17 26° SSE 02:56:00 10° ESE visible
14 Dec 10.2 05:04:34 20° SW 05:09:41 25° SSW 05:23:55 10° SSE visible
14 Dec 11.1 07:31:09 10° SW 07:36:25 12° SW 07:42:25 10° SSW visible
15 Dec 10.9 01:40:05 13° ESE 01:40:05 13° ESE 01:41:56 10° ESE visible
15 Dec 10.1 03:57:22 27° S 03:57:40 27° S 04:10:49 10° SE visible
15 Dec 10.7 06:16:04 10° WSW 06:24:06 17° SSW 06:34:41 10° S visible
16 Dec 10.4 02:50:10 22° SSE 02:50:10 22° SSE 02:57:15 10° SE visible
16 Dec 10.4 05:07:27 17° SW 05:11:54 21° SSW 05:23:40 10° SSE visible
